DECAYED

COSMOS 2251 DEB, 36442 (Decayed)

Orbit data source: Space-Track

COSMOS 2251 DEB, 36442 was space debris in LEO originally from a launch on Wed, 16 Jun 1993 UTC launched from the Plesetsk Missile And Space Complex (PKMTR). The debris from Iridium 33, an American commercial communications satellite, has been tracked extensively since its accidental collision with the defunct Russian satellite Cosmos 2251 in 2009. This event, occurring at high speed in low Earth orbit (LEO), generated thousands of pieces of space debris, significantly increasing the risk of further collisions. The Iridium 33 debris cloud has impacted space traffic management and orbital debris mitigation strategies, making it a subject of ongoing study in space situational awareness.

Not visible in the next 10 days
Identifier
36442, 1993-036BAR
Orbit
Decayed
Country
Flag of CISCIS
Related business
Manufacturer
Unknown
Mission
Decayed spacecraft
Bus & Motor
Unknown
Mass
Unknown
Launch date (UTC)
1993-06-16 (33 years ago)
Launch vehicle
Unknown
Launch site
Plesetsk Missile And Space Complex (PKMTR)
Object type
Payload
Rocket body
Debris
Shape & HBR
Unknown shape, 0.1 m
Radar Cross Section
Small (<0.1 m²)

Expand to show TLE details & history
Last TLE update: 3 months ago

TLE from 3 months ago
0 COSMOS 2251 DEB
1 36442U 93036BAR 26026.47083339  .01567891  00000-0  13109-1 0  9995
2 36442  73.9347 301.7477 0015886 154.2446 205.9570 15.66924917866050
Epoch: 2026-01-26T11:18Z
TLE epoch observation values (Epoch: 2026-01-26T11:18:00.004Z)
Latitude
-0.00005°
Longitude
6.48155°
Altitude
380.11 km
Speed
7.676 km/s
True Right ascension
20h 06m 59s
True Declination
0° 00' 00"
Sunlit
Object was in daylight at epoch
Visualization orbit readout
Latitude
Unknown
Longitude
Unknown
Altitude
Unknown
Speed
Unknown
Apparent Right ascension
Unknown
Apparent Declination
Unknown
Sunlit
N/A
Visualization observer readout
Local Sidereal Time
19:52:40
Azimuth
Unknown
Elevation
Unknown
Doppler factor
Unknown
Orbital elements
Apogee altitude
375.911 km
Perigee altitude
354.486 km
Semi-major axis
6,743.336 km
Eccentricity
0.00159
Inclination
73.9347°
RAAN
301.7477°
Arg. of periapsis
154.2446°
True anomaly
205.87746°
Mean anomaly
205.957°
Eccentric anomaly
205.91722°
Mean motion
3.9195 °/min
Orbital period
91.85 mins
BSTAR
0.013109

Documentation

Showing up to 5 results
|